This is the latest recevied weather packets stored in our database for station/object IT9KVB-11. If no packets are shown the sender has not sent any weather packets the latest 10 day(s).
| Time | Temp. | Humidity | Pressure | Rain* | Wind** | Luminosity | Snow |
|---|---|---|---|---|---|---|---|
| 1777575030 | 11.67° C | 81% | 923 hPa | 0 mm | 3.13 m/s, 0° | - | - |
| 1777574114 | 12.22° C | 77% | 923 hPa | 0 mm | 1.79 m/s, 0° | - | - |
| 1777573198 | 12.78° C | 73% | 923 hPa | 0 mm | 0 m/s | - | - |
| 1777572281 | 12.78° C | 72% | 923 hPa | 0 mm | 5.81 m/s, 0° | - | - |
| 1777571365 | 13.89° C | 72% | 922 hPa | 0 mm | 0 m/s | - | - |
| 1777570449 | 14.44° C | 73% | 922 hPa | 0 mm | 7.15 m/s, 0° | - | - |
| 1777569533 | 14.44° C | 72% | 922 hPa | 0 mm | 24.14 m/s, 0° | - | - |
| 1777568617 | 15.56° C | 65% | 922 hPa | 0 mm | 11.18 m/s, 0° | - | - |
| 1777567701 | 17.78° C | 57% | 922 hPa | 0 mm | 16.99 m/s, 0° | - | - |
| 1777566785 | 18.89° C | 51% | 922 hPa | 0 mm | 11.18 m/s, 0° | - | - |
| 1777565869 | 21.11° C | 49% | 922 hPa | 0 mm | 22.8 m/s, 0° | - | - |
| 1777564953 | 21.11° C | 48% | 922 hPa | 0 mm | 57.22 m/s, 0° | - | - |
| 1777564037 | 21.67° C | 48% | 922 hPa | 0 mm | 43.81 m/s, 0° | - | - |
| 1777563121 | 21.11° C | 47% | 922 hPa | 0 mm | 62.14 m/s, 0° | - | - |
| 1777562205 | 21.67° C | 46% | 922 hPa | 0 mm | 50.07 m/s, 0° | - | - |
| 1777561289 | 22.22° C | 44% | 922 hPa | 0 mm | 41.13 m/s, 0° | - | - |
| 1777560373 | 22.78° C | 45% | 922 hPa | 0 mm | 57.22 m/s, 0° | - | - |
| 1777559457 | 22.78° C | 47% | 922 hPa | 0 mm | 51.86 m/s, 0° | - | - |
| 1777558541 | 23.89° C | 47% | 922 hPa | 0 mm | 46.05 m/s, 0° | - | - |
| 1777557625 | 24.44° C | 41% | 922 hPa | 0 mm | 42.92 m/s, 0° | - | - |
| 1777556709 | 23.89° C | 41% | 922 hPa | 0 mm | 39.79 m/s, 0° | - | - |
| 1777555793 | 25° C | 45% | 922 hPa | 0 mm | 53.2 m/s, 0° | - | - |
| 1777554877 | 24.44° C | 41% | 922 hPa | 0 mm | 47.83 m/s, 0° | - | - |
| 1777553961 | 24.44° C | 40% | 922 hPa | 0 mm | 33.08 m/s, 0° | - | - |
| 1777553045 | 25° C | 32% | 922 hPa | 0 mm | 29.95 m/s, 0° | - | - |
* Rain latest hour (hover to see other rain measurements)
** Current wind speed in m/s (hover to see current wind gust speed)